Theta_e
314 315 317 319 319 318 318 318 318 318 318 317 317 316 316 316 316 317 317 316 314 312 310 308 308 310 310 310 309 308 308 309 309 313 313 316 319 320 319 318 318 317 317 316
314 315 317 318 315 316 316 317 317 318 317 314 316 316 316 317 316 316 314 314 312 311 309 306 306 307 308 308 308 308 306 306 307 312 314 315 316 317 318 317 316 316 316 316
317 320 317 316 316 316 316 316 317 317 316 316 316 317 320 318 317 314 312 312 310 307 307 306 305 305 306 306 305 305 306 306 305 307 309 310 313 312 312 313 313 314 313 312
317 315 314 314 315 315 316 317 316 315 315 319 315 319 318 319 317 314 312 310 308 306 305 305 304 304 304 304 304 303 303 304 305 304 305 307 308 307 307 307 308 309 310 311
317 314 313 315 315 315 316 312 313 313 315 316 317 317 318 317 317 313 311 308 306 305 304 303 303 303 304 304 303 303 304 303 302 302 302 302 303 304 305 304 303 304 304 305
314 309 312 314 313 312 310 312 314 314 316 319 319 319 317 317 315 311 308 306 305 304 303 302 301 300 300 301 302 303 303 303 304 304 303 301 301 300 301 302 301 301 302 302
317 315 312 310 313 311 311 314 320 323 323 322 318 316 317 316 312 312 309 305 304 303 303 302 301 300 299 298 299 301 303 303 303 302 303 303 302 301 299 299 299 299 300 300
319 319 316 311 314 317 317 317 322 324 324 323 314 319 318 312 308 306 304 303 302 301 300 300 300 299 298 298 300 300 301 301 301 301 301 301 301 301 301 300 299 298 298 298
319 319 313 311 312 312 315 314 313 315 316 319 317 318 317 310 308 305 303 301 300 299 299 298 298 298 297 298 297 297 298 298 299 299 299 299 300 300 299 300 300 299 298 297
317 318 317 312 309 310 313 316 319 316 319 320 316 315 315 315 312 305 303 301 299 299 298 297 296 297 296 296 296 296 295 294 293 295 296 296 296 298 299 298 297 297 298 299
314 316 316 315 315 314 312 312 312 312 313 316 316 315 313 312 310 306 302 299 298 297 296 295 296 294 295 292 291 291 291 290 290 290 290 291 291 292 293 296 297 296 295 296
314 313 316 314 313 314 313 313 314 315 315 314 315 316 314 307 306 302 299 297 296 295 292 292 294 292 292 291 290 290 289 289 288 288 288 288 289 289 289 289 291 293 295 294
313 313 315 314 311 312 314 313 313 314 314 315 316 315 310 304 302 300 300 297 296 294 292 291 293 292 291 290 290 289 288 288 287 287 287 287 287 287 287 288 288 288 288 290
310 311 312 313 310 311 313 311 312 313 314 315 314 312 312 309 306 305 301 298 297 295 291 291 291 291 291 290 289 288 287 287 287 286 286 286 286 286 286 286 286 286 287 287
310 310 309 309 309 309 309 308 308 309 310 310 309 310 309 308 307 304 303 296 294 294 291 290 290 289 290 290 289 288 287 287 286 286 286 286 286 286 286 286 286 286 286 286
305 306 306 305 305 305 305 305 306 306 307 307 307 306 305 302 296 297 296 293 292 294 290 290 290 289 289 289 289 288 287 286 286 286 286 286 285 285 285 286 286 286 286 286
303 304 303 302 302 302 303 303 303 304 304 303 303 302 296 297 295 295 294 293 291 292 290 289 290 289 289 289 289 287 286 286 286 286 286 285 285 285 285 285 285 286 285 285
300 301 302 301 301 301 300 300 299 299 299 300 300 295 294 293 292 291 292 292 291 291 291 290 290 289 289 288 287 286 285 285 285 285 284 284 283 284 284 284 284 284 284 285
299 299 299 300 300 300 300 299 298 297 298 298 298 293 292 291 291 291 292 291 291 291 290 290 289 288 288 287 286 285 285 283 282 281 281 281 281 280 280 280 280 281 281 282
295 297 299 299 298 297 296 296 293 294 295 297 293 292 291 291 291 292 291 291 290 290 289 289 289 288 288 286 285 285 284 282 280 279 278 278 278 277 277 276 276 276 276 278
294 295 297 297 298 296 298 294 293 295 296 295 292 291 291 291 291 291 291 290 290 290 289 289 289 288 286 284 284 284 283 282 279 278 277 276 275 274 274 274 273 272 272 272
293 294 295 294 293 293 293 292 293 294 293 292 291 291 291 291 291 290 290 290 290 290 289 287 287 287 286 284 283 282 282 281 280 279 279 277 275 272 270 269 269 268 267 268
292 293 293 293 293 293 291 292 292 292 292 291 291 291 291 290 290 290 290 289 289 287 286 286 285 285 284 282 280 280 280 278 278 278 277 274 272 269 267 266 265 265 265 265
293 292 292 293 292 292 292 292 291 291 291 291 291 291 290 290 289 289 289 287 286 285 285 284 283 282 282 281 280 278 277 276 275 274 272 269 267 266 265 264 263 264 264 264
293 292 292 292 292 291 291 291 291 291 290 290 290 290 289 288 288 287 285 285 284 283 283 281 281 280 281 279 278 277 276 274 273 270 268 266 264 263 263 263 263 264 264 264
292 292 292 292 292 292 291 291 291 290 290 290 289 289 288 287 286 285 284 283 282 281 280 280 279 279 278 277 277 276 274 271 269 268 266 264 264 264 263 263 263 264 265 266
Wind_Speed
10 9 11 17 17 20 20 19 20 21 19 17 17 16 17 26 27 21 14 9 9 14 15 19 20 17 15 15 13 9 7 10 13 17 21 24 28 28 32 36 37 39 40 42
5 12 17 17 8 12 15 17 19 17 9 1 13 18 21 16 22 9 9 10 14 13 17 20 23 25 24 21 19 13 8 4 8 10 11 14 14 20 21 26 33 37 39 43
17 14 6 11 14 15 16 16 18 17 14 11 11 15 13 10 18 10 16 16 16 16 17 21 24 26 26 27 27 24 15 8 3 3 7 11 14 18 21 23 24 29 32 35
12 8 7 10 16 13 16 11 11 11 6 10 4 11 12 8 8 14 14 15 16 16 16 17 21 27 31 30 27 27 24 17 11 6 3 4 10 10 11 14 20 25 28 31
2 5 4 8 8 7 6 1 4 5 10 12 11 7 8 5 8 13 11 12 14 14 16 18 19 21 24 27 30 29 29 26 23 17 10 5 7 7 8 14 15 16 19 21
17 3 4 10 2 7 2 6 10 7 5 9 14 12 7 1 6 11 10 11 10 11 14 16 16 19 21 23 25 26 26 29 30 27 21 15 11 8 8 10 14 13 15 18
5 9 5 4 7 5 7 8 8 8 9 13 6 6 13 4 8 8 10 9 8 10 11 13 15 16 16 19 22 26 29 30 29 26 25 24 20 15 12 11 10 12 13 16
10 17 5 7 5 7 8 8 8 11 13 14 3 8 8 13 14 13 12 10 7 8 10 14 14 14 16 20 24 25 28 27 26 24 24 24 24 24 20 17 15 13 14 15
10 10 3 3 1 2 3 6 6 6 9 9 13 20 19 14 11 9 10 9 7 8 11 12 12 13 16 19 22 24 22 22 23 24 23 23 23 22 23 23 20 17 15 16
3 9 4 3 1 9 7 1 5 3 4 7 13 20 15 13 8 7 5 6 8 10 10 11 12 14 15 17 18 17 18 20 21 20 21 21 21 21 21 22 22 23 21 16
5 4 15 10 9 14 7 6 11 12 10 13 17 14 11 6 2 6 5 3 4 5 7 8 8 9 10 12 15 15 16 18 20 21 21 21 22 22 21 21 21 22 23 24
9 2 8 23 20 17 10 15 16 13 8 11 12 13 13 2 5 5 6 5 2 2 5 6 6 7 8 10 12 13 16 18 21 22 23 23 22 22 23 24 24 24 25 24
2 3 5 8 10 2 7 11 14 18 18 24 17 14 3 4 5 7 7 7 6 3 1 4 5 6 8 9 11 13 15 16 22 25 27 27 28 28 26 27 27 27 27 26
1 8 14 14 18 19 17 18 16 14 11 14 16 21 17 12 5 7 7 8 7 6 4 3 4 5 7 9 10 13 16 18 23 25 27 29 30 32 34 33 30 31 32 33
5 11 15 18 21 21 21 19 22 23 24 23 25 23 21 19 20 18 12 8 7 7 5 5 6 7 9 10 11 12 16 17 20 23 25 28 32 34 37 39 40 40 36 35
8 9 11 16 18 20 23 24 27 24 24 25 24 25 22 16 8 2 5 6 8 9 7 7 8 10 11 12 13 14 16 16 22 26 29 30 32 34 37 42 44 43 44 44
11 8 8 19 15 18 15 22 22 24 23 23 22 13 8 6 5 6 7 10 10 11 11 10 11 12 14 15 15 17 18 22 31 35 37 38 37 39 40 41 42 44 47 50
12 11 9 13 11 19 13 10 8 13 15 12 10 1 1 2 7 9 10 13 15 14 16 15 14 15 16 20 24 21 27 33 38 40 40 41 44 47 49 49 49 49 48 49
19 15 8 8 15 18 24 18 19 14 18 11 4 5 2 7 12 17 13 9 15 17 17 19 15 17 23 25 25 29 36 39 39 39 43 47 49 52 56 58 61 61 61 60
5 13 11 10 13 16 15 3 4 4 12 6 8 4 7 12 9 11 16 16 17 15 18 18 22 26 27 27 31 37 42 44 44 43 44 48 52 53 56 55 56 58 58 63
2 4 13 13 15 12 4 5 3 7 8 13 6 10 15 11 16 22 21 20 17 19 21 24 26 27 27 27 36 42 45 50 52 54 54 54 51 50 55 59 56 53 55 57
8 7 6 5 7 11 5 6 6 3 5 6 14 21 21 21 20 21 20 19 17 16 18 20 25 30 34 36 39 44 50 53 55 57 58 60 60 59 56 54 58 52 48 49
7 10 7 6 6 3 9 13 15 17 19 26 29 25 21 20 18 18 19 16 17 17 19 25 31 35 35 37 42 47 50 51 53 55 58 59 60 58 52 47 46 44 41 40
14 22 11 13 15 24 29 30 30 28 29 30 28 25 20 20 18 15 13 15 18 21 24 28 31 34 38 41 44 45 45 47 50 53 55 56 54 52 47 42 39 39 39 39
14 4 12 13 20 27 30 31 31 30 28 27 24 21 20 17 16 14 16 20 20 24 26 29 31 36 40 42 43 42 43 44 48 50 52 51 46 42 42 40 39 39 40 40
24 21 12 15 25 22 26 28 24 23 27 26 24 24 22 21 20 19 19 20 22 26 27 30 33 38 40 41 41 41 40 42 44 47 46 44 44 45 43 42 43 37 36 37
Wind_Direction
196 215 223 250 239 252 276 287 286 283 294 303 295 296 290 288 291 293 307 330 48 69 41 28 29 28 19 8 359 343 301 261 251 246 239 239 236 239 241 239 239 240 243 241
182 232 248 268 298 283 276 274 277 285 294 277 280 298 289 282 272 313 342 75 74 50 39 31 28 29 27 21 17 14 14 338 284 233 239 236 240 244 246 251 244 242 240 243
244 266 294 260 256 261 265 267 275 282 313 281 279 276 288 247 261 65 103 94 68 53 39 29 31 34 36 35 31 27 28 30 41 280 269 254 228 245 247 246 247 247 244 243
259 275 258 237 252 261 267 278 278 276 279 295 29 298 300 276 161 117 84 60 56 49 48 44 38 35 37 39 41 39 37 35 44 51 14 315 294 293 281 268 256 259 259 252
219 170 184 218 228 217 278 350 251 248 264 292 257 253 241 235 223 123 80 61 53 51 47 42 42 44 40 39 37 39 40 40 42 35 42 28 340 311 290 278 285 272 271 268
259 110 211 242 211 219 33 263 250 255 271 262 264 228 279 208 140 133 100 68 60 57 56 51 41 38 33 34 35 36 37 37 37 31 26 18 1 335 308 294 300 289 284 277
216 231 172 234 254 191 220 264 288 261 238 258 284 240 254 223 117 130 130 109 83 74 63 59 48 40 31 27 27 25 24 25 26 27 28 24 15 3 345 325 310 292 287 284
283 291 189 150 252 310 286 255 252 282 279 290 138 259 279 103 116 115 117 116 104 74 59 49 41 33 27 21 17 15 14 13 13 13 16 19 19 19 9 350 331 312 294 284
305 269 117 202 260 268 129 232 9 324 295 282 265 270 272 139 118 119 124 123 94 60 42 34 26 20 15 17 15 13 10 8 7 8 9 9 9 11 10 11 5 347 326 306
331 290 276 92 148 228 238 338 291 190 246 247 262 283 283 270 165 154 126 76 45 38 32 22 19 13 6 4 6 6 8 11 11 10 6 6 5 3 1 1 2 3 354 340
319 248 273 299 246 268 239 234 226 254 257 266 274 270 311 8 146 173 156 111 66 32 21 9 11 11 6 4 8 10 7 6 8 9 6 2 2 1 356 353 350 350 350 350
266 258 252 273 285 299 283 271 267 261 253 248 261 259 292 338 173 185 179 175 184 2 10 14 13 12 11 14 5 1 356 350 353 356 355 354 352 350 349 350 347 341 337 340
87 217 289 290 272 193 227 263 255 259 262 259 265 272 275 154 168 208 221 220 228 220 321 356 345 351 357 3 356 348 349 345 343 345 344 343 342 342 341 339 336 335 334 332
354 260 249 259 275 305 294 292 295 295 275 267 256 279 277 258 270 283 282 269 247 233 239 279 291 308 325 339 338 336 337 335 333 335 334 333 331 332 332 331 329 325 325 327
244 252 259 259 265 276 283 283 280 272 276 277 287 287 284 288 293 307 258 264 269 246 260 297 301 310 311 309 316 322 324 322 322 321 320 319 318 318 317 318 320 321 321 318
249 272 290 278 278 275 276 272 267 272 273 274 275 275 279 311 3 309 253 257 276 261 276 303 315 320 318 311 300 305 311 305 315 318 314 309 304 301 303 306 309 309 310 312
267 266 268 268 279 283 272 254 263 265 266 272 275 304 356 335 320 296 284 273 289 278 269 295 311 319 321 315 305 297 301 305 313 315 313 311 307 303 301 299 298 300 303 304
254 259 260 271 281 260 266 281 291 284 287 295 312 58 78 331 309 299 283 275 277 284 268 276 291 301 310 313 316 307 305 312 315 315 313 312 311 308 306 303 300 297 294 293
235 252 262 255 252 274 290 289 285 298 287 308 236 171 42 338 313 293 286 284 285 285 283 279 283 292 305 314 315 306 309 312 312 311 311 311 308 305 304 301 300 297 295 291
241 240 242 251 260 264 286 10 18 316 280 124 122 170 303 309 287 290 309 314 294 281 292 284 274 293 304 310 308 306 310 311 312 311 307 305 304 302 299 296 294 294 292 292
218 239 233 244 257 266 283 85 119 246 296 158 179 302 301 283 276 291 290 288 282 284 280 277 284 293 304 304 305 308 310 311 313 310 308 305 302 297 295 295 292 289 287 288
255 254 229 232 262 272 76 126 221 328 149 228 290 300 294 289 284 283 280 283 286 279 275 283 290 297 301 305 307 308 310 311 309 307 305 304 304 303 301 299 298 294 289 287
243 242 261 243 260 232 199 254 265 275 272 287 296 294 293 284 278 278 281 281 276 284 284 289 294 297 302 306 312 311 311 311 309 307 306 307 308 308 308 303 299 294 291 285
257 253 250 259 252 260 270 271 273 279 278 284 286 289 283 272 277 277 271 267 277 286 292 295 300 304 308 312 312 312 313 313 311 311 311 312 311 310 308 302 296 292 289 287
245 238 241 252 258 269 266 266 269 273 278 281 285 285 271 268 267 272 269 279 287 292 295 301 304 307 309 313 313 315 318 316 315 315 314 312 309 306 302 298 294 292 288 286
242 242 246 251 262 263 272 280 281 286 284 281 277 271 272 268 269 272 276 283 289 295 300 303 306 309 314 314 316 320 320 320 317 314 316 315 314 312 308 303 301 298 292 291